Weather in Chachoengsao

Thailand     13°41′08″N   101°04′08″E
temp.,
°C
wind,
m/s
gust,
m/s
humid.,
%
clouds,
%
prec.,
mm/h
press.,
hPa
HPBL,
m
27 november, sat
sat2701:00+23ne4127166 0.0 1012283
04:00+22ne377616 0.0 1011158
07:00+21e2279100 0.0 101262
10:00+25ene68645 0.0 1015727
13:00+29ene57541 0.0 10111245
16:00+29n34571 0.0 10091217
19:00+24ene6126820 0.0 1012311
22:00+23ne41169100 0.0 1013274
28 november, sun
sun2801:00+22ne4974100 0.0 1012239
04:00+21ene377719 0.0 1011147
07:00+20ene378016 0.0 1013201
10:00+26ne6964100 0.0 1015892
13:00+29ne6855100 0.0 10111351
16:00+28ene7963100 0.0 1009957
19:00+25ene6116642 0.0 1011346
22:00+23ne387189 0.0 1012182
29 november, mon
mon2901:00+24ne51067100 0.0 1011389
04:00+23nne3974100 0.1 1010377
07:00+23ene4975100 0.1 1011307
10:00+27ene81262100 0.0 10121150
13:00+28ene8125899 0.0 10101302
16:00+25e71369100 0.1 1009390
19:00+25ene61362100 0.1 1011593
22:00+25ene51369100 0.1 1011618
30 november, tue
tue3001:00+25ene61367100 0.1 1010710
04:00+23ene398059 0.3 1009350
07:00+22ene3118599 0.4 1011586
10:00+26ene71269100 0.1 10131006
13:00+26ene81270100 0.5 10101049
16:00+24ene4117690 0.1 1009499
19:00+23ene6136456 0.1 1012687
22:00+23ene41068100 0.0 1013347
1 december, wed
wed101:00+22ene396968 0.0 1012287
04:00+22ene7146420 0.0 1011644
07:00+22ene8166772 0.0 1013698
10:00+25ene81363100 0.0 1015970
13:00+27ene8105785 0.0 10121200
16:00+26ene686286 0.0 10111123
19:00+23ene6126795 0.1 1014452
22:00+22ene51365100 0.0 1014430